Showing default

INTELSAT 804, 25110

Orbit data source: Space-Track

INTELSAT 804, 25110 is a payload satellite owned by INTELSAT (US) in GEO that was launched on Sun, 21 Dec 1997 UTC via an ARIANE 42L launch vehicle from the French Guiana (FRGUI). Payload-class satellites include a variety of spacecraft equipped with specific instruments for various scientific and technological missions. These include communications satellites like Starlink; space stations such as the ISS; scientific satellites like the Hubble; Earth observation satellites from companies like Planet Labs, Umbra, and HawkEye 360; GPS; miniature CubeSats for education and research; and military/defense satellites.

Loading next visibility...
Identifier
25110, 1997-083A
Orbit
GEO
Last TLE update
2 days ago
Origin
Manufacturer
LMT/EW
Mission
Non-operational Civil Communications
Bus & Motor
AS7000, 2X LEROS 1B
Mass
3,455 kg wet, 1,601 kg dry
Launch date (UTC)
1997-12-21 (28 years ago)
Launch vehicle
ARIANE 42L
Launch site
French Guiana (FRGUI)
Object type
Payload
Rocket body
Debris
Shape & HBR
Hex Poly + 2 Pan, 21.58 m
Radar Cross Section
42.091 m², Large (>1 m²)

Expand to show TLE details & history

TLE from 2 days ago
0 INTELSAT 804
1 25110U 97083A   25181.46797552  .00000097  00000-0  00000-0 0  9994
2 25110  12.7909  20.1955 0006864  43.5231 224.0099  1.00196551100806
Epoch: 2025-06-30T11:13Z
TLE epoch observation values (Epoch: 2025-06-30T11:13:53.084Z)
Latitude
-12.80011°
Longitude
-159.62547°
Altitude
35,830.857 km
Speed
3.072 km/s
True Right ascension
19h 10m 29s
True Declination
-12° 47' 15"
Sunlit
Object was in daylight at epoch
Visualization orbit readout
Latitude
9.83036°
Longitude
63.32617°
Altitude
35,804.278 km
Speed
3.074 km/s
Apparent Right ascension
09h 38m 53s
Apparent Declination
4° 35' 33"
Sunlit
Object is in daylight
Visualization observer readout
Local Sidereal Time
13:38:27
Azimuth
253.255° W
Elevation
25.778°
Doppler factor
1
Orbital elements
Apogee altitude
35,837.649 km
Perigee altitude
35,779.735 km
Semi-major axis
42,186.829 km
Eccentricity
0.00069
Inclination
12.7909°
RAAN
20.1955°
Arg. of periapsis
43.5231°
True anomaly
Unknown
Mean anomaly
224.0099°
Eccentric anomaly
Unknown
Mean motion
0.25048 °/min
Orbital period
1,437.22 mins
BSTAR
0
Loading historical data...
25110 neighbors
Loading maneuver chart data...
Loading SW <> Apogee altitude chart data...
Loading historical data...
Loading historical data...
Loading historical data...
Loading historical data...
Loading historical data...
Loading historical data...
Loading historical data...
Other satellites on launch #83 in the year 1997 (1997-12-21 UTC)

INTELSAT 804 Visibility forecast

Observer location: undefined°, undefined°

Span
Click to sort rows by Start time (UTC) header in descending order
Start Az.
Max El. time (UTC)
Max El. Az.
Max El.
End time (UTC)
End Az.
394 mins2025-07-02 01:57:27.484Z253.239° W2025-07-02 01:57:27.484Z253.239° W23.498°2025-07-02 08:31:27.484Z239.271° WSW
743 mins2025-07-02 13:34:27.484Z237.556° WSW2025-07-02 23:47:27.484Z256.457° W24.538°2025-07-03 01:57:27.484Z253.358° W
|